"Pseudo-MPEC" for P22osbK

Created 2026 Aug 7 13:35:11 UT using Find_Orb

Click here for an explanation of pseudo-MPECs

 
 Astrometry: 
     P22osbK*0C2026 07 19.58495700 13 22.899-10 32 56.84   ~7NF5 20.37wXNEOCPF52
     P22osbK 0C2026 07 19.59203000 13 22.720-10 33 01.02   ~7NF5 20.37wXNEOCPF52
     P22osbK 0C2026 07 19.59909600 13 22.547-10 33 05.07   ~7NF5 20.37wXNEOCPF52
     P22osbK 0C2026 07 19.60617100 13 22.371-10 33 09.22   ~7NF5 20.35wXNEOCPF52
     P22osbK 1C2026 07 19.79838 00 13 17.80 -10 34 58.1    ~7NF5       VNEOCPQ62
     P22osbK 1C2026 07 19.80336 00 13 17.67 -10 35 01.4    ~7NF5 19.4 GVNEOCPQ62
     P22osbK 3C2026 07 20.60006200 12 58.475-10 42 48.51   ~7NF5 20.08GVNEOCPT14
     P22osbK 3C2026 07 20.60127700 12 58.444-10 42 49.18   ~7NF5 20.01GVNEOCPT14
     P22osbK 3C2026 07 20.60343200 12 58.389-10 42 50.49   ~7NF5 20.07GVNEOCPT14
     P22osbK 0C2026 07 21.41479100 12 38.074-10 50 51.32   ~7NF5 20.09rUNEOCPI41
     P22osbK 3C2026 07 21.57747600 12 33.866-10 52 28.76   ~7NF5 20.05GVNEOCPT14
     P22osbK 3C2026 07 21.57902500 12 33.825-10 52 29.70   ~7NF5 20.03GVNEOCPT14
     P22osbK 3C2026 07 21.58057300 12 33.783-10 52 30.63   ~7NF5 20.03GVNEOCPT14
     P22osbK 0C2026 07 22.07765500 12 20.840-10 57 31.19   ~7NF5 19.9 GXNEOCPR59
     P22osbK KC2026 07 22.07766300 12 20.83 -10 57 30.7    ~7NF5 19.5 GVNEOCPL06
     P22osbK 1B2026 07 22.07875900 12 20.814-10 57 28.82   ~7OE5 19.9 GWNEOCPM21
     P22osbK KC2026 07 22.08584100 12 20.61 -10 57 35.1    ~7NF5 19.8 GVNEOCPL06
     P22osbK 0C2026 07 22.09928200 12 20.278-10 57 43.62   ~7NF5 19.6 GXNEOCPR59
     P22osbK 1B2026 07 22.11097600 12 19.936-10 57 48.37   ~7OE5 20.0 GWNEOCPM21
     P22osbK 0C2026 07 22.12064600 12 19.723-10 57 56.78   ~7NF5 19.9 GXNEOCPR59
     P22osbK 0C2026 07 22.46208000 12 10.592-11 01 22.92   ~7NF5 19.83iUNEOCPI41
     P22osbK 0C2026 07 22.50191500 12 09.659-11 01 47.69   ~7NF5x19.58rUNEOCPI41
     P22osbK KB2026 07 24.30239900 11 19.253-11 20 22.50   ~7O8Z 19.5 GXNEOCPW62
     P22osbK KB2026 07 24.31636600 11 18.845-11 20 31.25   ~7O8Z 19.4 GXNEOCPW62
     P22osbK KB2026 07 24.33033100 11 18.446-11 20 39.92   ~7O8Z 19.4 GXNEOCPW62
     P22osbK 7C2026 07 25.00792400 10 58.534-11 27 46.92   ~7QHo 19.98GWNEOCPK91
     P22osbK 7C2026 07 25.02239400 10 58.090-11 27 56.14   ~7QHo 19.91GWNEOCPK91
     P22osbK 7C2026 07 25.03397200 10 57.742-11 28 03.39   ~7QHo 20.03GWNEOCPK91
     P22osbK KC2026 07 25.08351 00 10 56.22 -11 28 37.7    ~7P75 19.7 rZNEOCPL27
     P22osbK KC2026 07 25.10192 00 10 55.64 -11 28 49.2    ~7P75 19.4 rZNEOCPL27
     P22osbK KC2026 07 25.11997 00 10 55.16 -11 29 00.4    ~7P75 19.6 rZNEOCPL27
     P22osbK 1B2026 07 26.02872600 10 27.382-11 38 43.30   ~7Q1Z 19.5 VZNEOCPM49
     P22osbK 1B2026 07 26.03937500 10 27.053-11 38 49.92   ~7Q1Z 19.6 VZNEOCPM49
     P22osbK KB2026 07 29.03894 00 08 48.02 -12 12 06.4    ~7T6Z 20.0 GXNEOCPM45
     P22osbK KB2026 07 29.04573 00 08 47.77 -12 12 10.6    ~7T6Z 20.0 GXNEOCPM45
     P22osbK KB2026 07 29.05252 00 08 47.51 -12 12 15.9    ~7T6Z 19.6 GXNEOCPM45
     P22osbK 0B2026 07 30.12977700 08 09.215-12 24 34.78   ~85L5 20.2 GWNEOCPS15
     P22osbK 0B2026 07 30.14988400 08 08.406-12 24 47.90   ~85L5 19.2 GWNEOCPS15
     P22osbK 0B2026 07 30.16893600 08 07.703-12 25 01.15   ~85L5 19.4 GWNEOCPS15
     P22osbK 0B2026 07 30.17524200 08 07.474-12 25 05.53   ~85L5 19.3 GWNEOCPS15
     P22osbK KB2026 08 05.03958 00 04 11.87 -13 36 02.2    ~85GK 19.6 GXNEOCPL04
     P22osbK KB2026 08 05.05312 00 04 11.26 -13 36 12.1    ~85GK 19.8 GXNEOCPL04
     P22osbK KC2026 08 05.06367 00 04 10.82 -13 36 20.3    ~856Z 19.9 VZNEOCPJ87
     P22osbK KC2026 08 05.09624 00 04 09.35 -13 36 45.5    ~856Z 20.1 VZNEOCPJ87
     P22osbK KC2026 08 05.12883 00 04 07.89 -13 37 09.7    ~856Z 19.7 VZNEOCPJ87
     P22osbK KC2026 08 05.31882 00 03 59.45 -13 39 31.5    ~858o 20.0 GVNEOCPW94
     P22osbK KC2026 08 05.32508 00 03 59.18 -13 39 35.8    ~858o 18.7 GVNEOCPW94
     P22osbK KC2026 08 05.33130 00 03 58.87 -13 39 40.6    ~858o 19.2 GVNEOCPW94
     P22osbK KC2026 08 06.05152 00 03 26.57 -13 48 53.3    ~865Z 20.0 VZNEOCPJ87
     P22osbK KC2026 08 06.08968 00 03 24.80 -13 49 22.5    ~865Z 19.6 VZNEOCPJ87
     P22osbK KC2026 08 06.12799 00 03 23.03 -13 49 51.8    ~865Z 19.5 VZNEOCPJ87
     P22osbK 1C2026 08 07.10989800 02 37.67 -14 02 30.7    ~875o 19.3 GVNEOCPZ31
     P22osbK 1C2026 08 07.11164200 02 37.60 -14 02 32.1    ~875o 19.3 GVNEOCPZ31
     P22osbK 1C2026 08 07.11335300 02 37.52 -14 02 33.3    ~875o 19.2 GVNEOCPZ31
     P22osbK 1C2026 08 07.11508200 02 37.43 -14 02 34.7    ~875o 19.3 GVNEOCPZ31

Station data:
(F52) Pan-STARRS 2, Haleakala  (N20.707382 W156.255910)  US/Hawaii.
   Observers J. Herman, T. Lowe, P. Minguez, A. Schultz, I. Smith. Measurers
   K. Chambers, T. de Boer, J. Fairlamb, H. Gao, M. Huber, C.-C. Lin, E.
   Magnier, Y. Ramanjooloo, R. Wainscoat, R. Weryk. 1.8-m Ritchey-Chrétien +
   CCD.
(I41) Palomar Mountain--ZTF  (N33.357336 W116.859780)  US/California.
   Observers B. T. Bolin, Z. T. F. Collaboration. Measurers B. T. Bolin,
   Z.-Y. Lin, F. J. Masci. 1.2-m f/2.4 Schmidt.
(J87) La Cañada  (N40.603972 W4.493300)  Spain. 0.30-m Schmidt-Cassegrain.
(K91) Sutherland-LCO A  (S32.380540 E20.810190)  South Africa.  Observers T.
   Lister, S. Greenstreet, E. Gomez. Measurer T. Lister. 1.0-m f/8
   Ritchey-Chrétien + CCD.
(L04) ROASTERR-1 Observatory, Cluj-Napoca  (N46.820952 E23.596400)  Romania.
   Observer L. Hudin. 0.1-m f/9 refractor + CCD.
(L06) Sormano 2 Observatory, Bellagio Via Lattea  (N45.970100 E9.254030)
   Italy.  Observer G. Ventre. Measurers G. Ventre, P. Sicoli. 0.28-m f/10
   reflector + CCD.
(L27) 29PREMOTE Observatory, Dauban  (N43.999832 E5.647040)  France.
   Observer J.-F. Soulier. 0.20-m f/4 Newtonian reflector + CCD.
(M21) Schiaparelli Southern Observatory, Hakos  (S23.236549 E16.361440)
   Namibia.  Observers A. Aletti, F. Bellini, L. Buzzi, G. Galli. Measurer L.
   Buzzi. 0.36-m f/8.4 reflector + CCD.
(M45) Starhopper Observatory, Sfantu Gheorghe  (N45.865494 E25.768890)
   Romania.  Observer F. Ursache. 0.41-m f/7.5 reflector + CMO.
(M49) IAS Remote Observatory, Hakos  (S23.236549 E16.361720)  Namibia.
   Observers D. Husar, M. Junius. Measurer D. Husar. 0.25-m f/4.6 reflector +
   CCD.
(Q62) iTelescope Observatory, Siding Spring  (S31.273286 E149.064420)
   Australia/NSW.  Observer H. Sato. 0.30-m f/9 reflector + CCD.
(R59) Camarasa Observatory, Astrocamp Nerpio  (N38.165429 W2.326580)  Spain.
(S15) Namibia1/HAKOS, Hakos, Namibia, Hakos  (S23.236496 E16.361470)  Namibia.
(T14) Mauna Kea-UH/Tholen NEO Follow-Up (CFHT)  (N19.825252 W155.468876)
   US/Hawaii.  Observer R. Weryk. 3.6-m Canada-France-Hawaii Telescope.
(W62) Comet Hunter Observatory2, New Ringgold  (N40.745185 W75.862390)
   US/Pennsylvania.  Observer J. Maikner. 0.30-m f/3.8 Riccardi-Honders + CCD.
(W94) AMACS1, San Pedro de Atacama  (S22.953074 W68.179810)  Chile.  Observers
   A. Maury, G. Attard. Measurers A. Maury, G. Attard, D. Parrott. 0.28-m
   f/2.2 Schmidt + CCD.
(Z31) Tenerife Observatory-LCO A, Tenerife  (N28.300419 W16.511650)  Canary
   Islands (Spain).  Observer J. D. Armstrong. Measurer M. Micheli. 1.0-m
   reflector + CCD.

Orbital elements:  P22osbK
   Perihelion 2027 Jul 18.273942 +/- 0.47 TT =  6:34:28.5 (JD 2461604.773942)
Epoch 2026 Aug  7.0 TT = JDT 2461259.5   Earth MOID: 0.7156   Ju: 0.5089
q   1.501345842 +/- 0.00323         (J2000 ecliptic)             AutoNEOCP
H   13.09 G 0.15                    Peri.  304.336416 +/- 0.17
z  -0.0013903393 +/- 0.00197        Node   177.931927 +/- 0.019
e   1.00208738 +/- 0.00296          Incl.  137.267407 +/- 0.036
54 of 55 observations 2026 July 19-Aug. 7; mean residual 0".28
Residuals in arcseconds: 
260719 F52  .07+  .14+    260722 R59  .17+  .50-    260730 S15  .20+  .02-    
260719 F52  .04-  .05+    260722 I41  .29-  .48+    260730 S15  .28+  .03-    
260719 F52  .05-  .08+    260722 I41( 2.2+  .02-)   260805 L04  .31+  .12+    
260719 F52  .11-  .02+    260724 W62  .36-  .18+    260805 L04  .26+  .47+    
260719 Q62  .15-  .41+    260724 W62  .27-  .23+    260805 J87  .12-  .06+    
260719 Q62  .27-  .00     260724 W62  .03-  .36+    260805 J87  .24-  .45-    
260720 T14  .03+  .03-    260725 K91  .07+  .23-    260805 J87  .16-  .06+    
260720 T14  .03+  .02+    260725 K91  .05+  .22-    260805 W94  .21-  .03+    
260720 T14  .03+  .03-    260725 K91  .14+  .07-    260805 W94  .00   .49+    
260721 I41  .06-  .48+    260725 L27  .24-  .13-    260805 W94  .40-  .41+    
260721 T14  .03+  .02-    260725 L27  .48-  .12+    260806 J87  .11-  .20-    
260721 T14  .03+  .03-    260725 L27  .61+  .45+    260806 J87  .20-  .07-    
260721 T14  .02+  .03-    260726 M49  .24-  .32-    260806 J87  .13-  .06+    
260722 R59  .49-  .95-    260726 M49  .08-  .02-    260807 Z31  .03-  .28-    
260722 L06  .25-  .24-    260729 M45  .02-  .23+    260807 Z31  .16+  .32-    
260722 M21  .03-  .01-    260729 M45  .14-  .66+    260807 Z31  .19+  .18-    
260722 L06  .24-  .31+    260729 M45  .41-  .01-    260807 Z31  .08+  .24-    
260722 R59  .17-  .28-    260730 S15  1.0+  .77-    
260722 M21  .05-  .06-    260730 S15  .12+  .04+    

Ephemerides (geocentric):
Date (UTC) HH   RA             Dec           delta  r     elong  mag " sig PA
---- --------  ------------   ------------  ------ ------ -----  --- --------
2026 08 07 14  00 02 15.248   -14 08 38.25  3.5905 4.3985 138.2 19.7 .105 139
2026 08 07 15  00 02 13.264   -14 09 10.87  3.5897 4.3981 138.2 19.7 .107 140
2026 08 07 16  00 02 11.279   -14 09 43.51  3.5888 4.3977 138.3 19.7 .108 140
2026 08 07 17  00 02 09.290   -14 10 16.17  3.5880 4.3973 138.3 19.7 .110 140
2026 08 07 18  00 02 07.300   -14 10 48.84  3.5871 4.3969 138.4 19.7 .111 140
2026 08 07 19  00 02 05.307   -14 11 21.53  3.5863 4.3965 138.4 19.7 .113 140
2026 08 07 20  00 02 03.312   -14 11 54.24  3.5854 4.3961 138.5 19.7 .115 140
2026 08 07 21  00 02 01.314   -14 12 26.96  3.5846 4.3957 138.5 19.7 .116 140
